Regional Weather Roundup
Issued by NWS Bismarck, ND

Home | Current Version | Previous Version | Text Only | Print | Product List | Glossary On
Versions: 1 2 3 4 5 6 7 8 9 10 11 12 13 14 15 16 17 18 19 20 21 22 23 24 25 26 27 28 29 30 31 32 33 34 35 36 37 38 39 40 41 42 43 44 45 46 47 48 49 50
000
ASUS43 KBIS 270820
RWRBIS

NWR BROADCAST TEXT
NATIONAL WEATHER SERVICE BISMARCK ND
300 AM CDT FRI MAR 27 2015

NOTE: "FAIR" INDICATES FEW OR NO CLOUDS BELOW 12,000 FEET WITH NO
SIGNIFICANT WEATHER AND/OR OBSTRUCTIONS TO VISIBILITY.


CITY           SKY/WX    TMP DP  RH WIND       PRES   REMARKS
WILLISTON      CLOUDY    37  29  72 S6        30.07F
MINOT          CLOUDY    28  17  63 S12       30.13F WCI  18
MINOT AFB      CLOUDY    28  22  79 S13       30.13F WCI  17
BISMARCK       MOCLDY    25  16  68 S9        30.22F WCI  15
DICKINSON      CLOUDY    33  27  78 S14       30.07F
GARRISON         N/A     28  18  66 S10       30.15F WCI  19
HETTINGER ARPT FLURRIES  32  28  85 S9        30.12F
JAMESTOWN      PTCLDY    15  11  83 S5        30.24F WCI   8
BEACH          MIX PCPN  36  36 100 S12       30.05F
CARRINGTON     FAIR      19  18  93 S10       30.23F WCI   8
CROSBY         FAIR      34  28  80 S15       30.06F
HARVEY         FAIR      23  18  80 S9        30.20F WCI  13
HAZEN          CLOUDY    30  18  59 S16       30.16F WCI  19
LINTON         FAIR      21  18  86 SE14      30.22F WCI   8
MANDAN         CLOUDY    25  16  68 S10       30.20F WCI  15
OAKES            N/A     18  18 100 CALM      30.27F
RUGBY          FAIR      25  19  80 S10G17    30.19S WCI  15
TIOGA          CLOUDY    32  28  86 S10       30.09F
WATFORD CITY   FAIR      36  28  75 S12       30.06F
$$

CITY           SKY/WX    TMP DP  RH WIND       PRES   REMARKS
GRAND FORKS    CLEAR     14  11  87 CALM      30.29F
GRAND FORKS AF CLEAR     14  11  88 SW2       30.28F
DEVILS LAKE    CLEAR     19  14  79 S7        30.22S WCI  10
FARGO          CLEAR     12   6  77 CALM      30.29F
CANDO          FAIR      23  18  80 S9        30.22S WCI  13
CAVALIER       FAIR      19  10  68 S5        30.29S WCI  13
GWINNER        SUNNY     21  14  73 CALM        N/A
ROLLA          FAIR      23  21  93 S13       30.19S WCI  11
WALHALLA         N/A     14  14 100 SE5       30.28S WCI   6
$$

CITY           SKY/WX    TMP DP  RH WIND       PRES   REMARKS
ABERDEEN       CLEAR     14   9  80 CALM      30.29F
MOBRIDGE       CLOUDY    24  13  62 SE7       30.21F WCI  16
BUFFALO          N/A     33  31  92 S8        30.03F
RAPID CITY     CLOUDY    33  27  78 SE9       30.13F
GLASGOW        MOCLDY    38  32  79 E8        29.97F
SIDNEY         CLOUDY    37  30  75 E6        30.04F
WOLF POINT     CLOUDY    37  32  82 NE5       29.99F
GLENDIVE         N/A     39  34  81 S8        30.03F
MILES CITY     MOCLDY    42  32  67 SE8       30.01F
BAKER          CLOUDY    37  31  78 SE10      30.05F
$$

CITY           SKY/WX    TMP DP  RH WIND       PRES   REMARKS
BILLINGS       MOCLDY    52  34  50 NW13      30.10F
GREAT FALLS    PTCLDY    46  35  65 SW10      30.10F
REGINA         MOCLDY    32  30  93 SE15G21   29.99F
ESTEVAN        CLOUDY    34  27  75 S8        30.07F
$$



USA.gov is the U.S. government's official web portal to all federal, state and local government web resources and services.